Weather History for Bloomington, IN

Change the Weather History Date:

Monday, January 21, 2013

  Actual Average Record
Temperature  
Mean Temperature 18 °F 29 °F  
Max Temperature 24 °F 39 °F 57 °F (2006)
Min Temperature 12 °F 20 °F -6 °F (2011)
Degree Days  
Heating Degree Days 47 36  
Month to date heating degree days 693 756  
Since 1 July heating degree days 2707 2829  
Cooling Degree Days 0 0  
Month to date cooling degree days 0 0  
Year to date cooling degree days 0 0  
Moisture  
Dew Point 7 °F    
Average Humidity 59    
Maximum Humidity 74    
Minimum Humidity 43    
Precipitation  
Precipitation T in 0.07 in 0.43 in (2007)
Month to date precipitation 3.85 2.46  
Year to date precipitation 3.85 2.46  
Sea Level Pressure  
Sea Level Pressure 30.22 in    
Wind  
Wind Speed 10 mph (WNW)    
Max Wind Speed 22 mph    
Max Gust Speed 31 mph    
Visibility 10 miles    
Events      
T = Trace of Precipitation, MM = Missing Value Source: NWS Daily Summary

Daily Weather History Graph

Daily Weather History Graph

Search for Another Location

Airport:

Trip Planner

Search our weather history database for the weather conditions in past years. The results will help you decide how hot, cold, wet, or windy it might be!

Date:

Astronomy

Jan. 21, 2013 Rise Set
Actual Time 8:01 AM EST 5:54 PM EST
Civil Twilight 7:32 AM EST 6:23 PM EST
Nautical Twilight 6:59 AM EST 6:56 PM EST
Astronomical Twilight 6:27 AM EST 7:28 PM EST
Moon 1:34 PM EST (1/21) 3:28 AM EST (1/21)
Length of Visible Light 10h 51m
Length of Day
9h 53m
Waxing Gibbous, 75% of the Moon is Illuminated
Jan 21
Waxing Gibbous
Jan 26
Full
Feb 3
Last Quarter
Feb 10
New
Feb 17
First Quarter

Hourly Weather History & Observations

Time (EST) Temp. Windchill Dew Point Humidity Pressure Visibility Wind Dir Wind Speed Gust Speed Precip Events Conditions
12:53 AM 24.1 °F 19.7 °F 14.0 °F 65% 30.21 in 10.0 mi NW 3.5 mph - N/A   Overcast
1:53 AM 23.0 °F 18.4 °F 15.1 °F 72% 30.19 in 10.0 mi NW 3.5 mph - N/A   Overcast
2:09 AM 23.0 °F 18.4 °F 15.8 °F 74% 30.16 in 10.0 mi NW 3.5 mph - N/A   Overcast
2:23 AM 23.0 °F 14.7 °F 15.8 °F 74% 30.17 in 10.0 mi WNW 6.9 mph - N/A   Overcast
2:53 AM 23.0 °F 15.8 °F 15.1 °F 72% 30.19 in 10.0 mi NW 5.8 mph - N/A   Overcast
3:22 AM 23.0 °F 13.1 °F 15.8 °F 74% 30.16 in 10.0 mi WNW 9.2 mph - N/A   Overcast
3:53 AM 23.0 °F 11.7 °F 15.1 °F 72% 30.19 in 10.0 mi WNW 11.5 mph - N/A   Overcast
4:53 AM 21.9 °F 12.5 °F 14.0 °F 72% 30.18 in 10.0 mi WNW 8.1 mph - N/A   Overcast
5:53 AM 21.0 °F 11.4 °F 14.0 °F 74% 30.18 in 10.0 mi WNW 8.1 mph - N/A   Overcast
6:53 AM 21.0 °F 9.9 °F 12.9 °F 71% 30.19 in 10.0 mi West 10.4 mph 18.4 mph N/A   Overcast
7:53 AM 19.9 °F 7.9 °F 10.9 °F 68% 30.20 in 10.0 mi West 11.5 mph - N/A   Overcast
8:53 AM 19.0 °F 6.1 °F 10.9 °F 71% 30.19 in 10.0 mi West 12.7 mph - 0.00 in   Overcast
9:24 AM 19.4 °F 7.9 °F 8.6 °F 63% 30.17 in 10.0 mi WNW 10.4 mph 21.9 mph N/A   Scattered Clouds
9:53 AM 19.0 °F 6.8 °F 8.1 °F 62% 30.21 in 10.0 mi WNW 11.5 mph 24.2 mph N/A   Mostly Cloudy
10:03 AM 19.4 °F 6.0 °F 8.6 °F 63% 30.18 in 10.0 mi WNW 13.8 mph 27.6 mph N/A   Overcast
10:53 AM 19.0 °F 6.8 °F 6.1 °F 57% 30.22 in 10.0 mi WNW 11.5 mph 19.6 mph 0.00 in   Overcast
11:53 AM 19.9 °F 7.3 °F 3.0 °F 48% 30.22 in 10.0 mi West 12.7 mph 26.5 mph N/A   Scattered Clouds
12:53 PM 19.9 °F 8.6 °F 3.0 °F 48% 30.21 in 10.0 mi West 10.4 mph 21.9 mph N/A   Scattered Clouds
1:53 PM 17.1 °F 0.6 °F -0.0 °F 47% 30.21 in 10.0 mi WNW 19.6 mph 27.6 mph N/A   Clear
2:53 PM 19.9 °F 7.9 °F -0.0 °F 42% 30.22 in 10.0 mi West 11.5 mph 25.3 mph N/A   Partly Cloudy
3:53 PM 19.0 °F 5.6 °F -0.0 °F 43% 30.22 in 10.0 mi West 13.8 mph 21.9 mph N/A   Partly Cloudy
4:53 PM 17.1 °F 3.6 °F -0.9 °F 45% 30.25 in 10.0 mi WNW 12.7 mph 19.6 mph N/A   Clear
5:53 PM 15.1 °F 1.8 °F -0.9 °F 49% 30.27 in 10.0 mi WNW 11.5 mph 18.4 mph N/A   Clear
6:53 PM 14.0 °F 1.2 °F -2.0 °F 49% 30.28 in 10.0 mi WNW 10.4 mph - N/A   Clear
7:53 PM 12.9 °F 0.7 °F -2.0 °F 51% 30.30 in 10.0 mi WNW 9.2 mph - N/A   Clear
8:53 PM 12.9 °F 1.6 °F -0.9 °F 54% 30.30 in 10.0 mi West 8.1 mph - N/A   Clear
9:53 PM 12.9 °F 0.7 °F -2.0 °F 51% 30.31 in 10.0 mi WNW 9.2 mph 18.4 mph N/A   Clear
10:53 PM 12.9 °F -1.6 °F -2.0 °F 51% 30.31 in 10.0 mi WNW 12.7 mph 19.6 mph N/A   Clear
11:53 PM 12.0 °F -2.0 °F -4.0 °F 49% 30.32 in 10.0 mi WNW 11.5 mph - N/A   Clear